Find OneWeb SL0319

NORAD ID: 49105 Int'l Des: 2021-075 Owner: ONEWEBN Country: UK Constellation: oneweb operational
LEOCIRCULARPOLARONEWEB_TYPE

Live Position

Loading 3D Globe...

About OneWeb SL0319

Description loading...

Upcoming Passes

Passes for default location (London). Set your location on the main map for personalized predictions.

Altitude History

Loading altitude history...

Two-Line Element Set

1 49105U 21075AG 26106.20948226 .00000254 00000-0 62163-3 0 9994
2 49105 87.9184 18.1802 0001639 96.4351 263.6967 13.17648761225445
Epoch: Apr 16, 2026 • Age: 10 hours

Current Status

Altitude 1221.3 km
Velocity 7.24 km/s
Sub-Earth Point -71.01°S, 128.19°E
Launch Date Aug 21, 2021
Age 4.6 years
Type internet

Technical Details

Classification Payload
Mass 148.00 kg
Dry Mass 140.00 kg
Total Mass 148.00 kg
Length 1.30 m
Diameter 1.00 m
Span 5.00 m
Shape Trapezoid+2 pan
Manufacturer ONEWUS
Bus Type ARROW
Phase Status In Orbit
Owner/State ONEWEBN/UK

Most Searched